Tracking 27380 objects as of 5-Jun-2023
HD Live streaming from Space Station
objects crossing your sky now

DELTA 1 DEB

Track DELTA 1 DEB now!
10-day predictions


NORAD ID: 7191
Int'l Code: 1973-086EZ
Perigee: 1,430.5 km
Apogee: 1,829.3 km
Inclination: 102.2 °
Period: 118.7 minutes
Semi major axis: 8000 km
RCS: 0.0206 m2 (small)
Launch date: November 6, 1973
Source: United States (US)
Launch site: AIR FORCE WESTERN TEST RANGE (AFWTR)

Note: This is SATELLITE DEBRIS
Your satellite tracking list
Your tracking list is empty




NASA's NSSDC Master Catalog

Two Line Element Set (TLE):
1  7191U 73086EZ  23156.31740281  .00000650  00000-0  66192-2 0  9992
2  7191 102.1638  81.6496 0249180 136.8378 348.7701 12.13096480764433
Source of the keplerian elements: AFSPC